Portada
METAR-TAF:

METAR-TAF

Aeroports :

São Paulo, São Paulo, Brasil

latitud: 23-31S, longitud: 046-38W, altitud: 722 m

Observació

L'informe es va fer fa 1 hora i 41 minuts, a les 01:00 UTC
Vent 8 kt del Sud-Est
Temperatura 18°C
Humitat 88%
Pressió 1021 hPa
Visibilitat 10 km o més
Cel ennuvolat a una alçada de 1100 ft
Cel ennuvolat a una alçada de 2100 ft

METAR: SBMT 230100Z 13008KT 9999 BKN011 BKN021 18/16 Q1021

Hora: 23:41 (02:41 UTC)


TAF: manca

Observacions i pronòstics meteorològics de més de 4000 aeroports (METAR i TAF).

Les estacions disponibles són els punts grocs i vermells al mapa.

Posi el ratolí al punt desitjat per veure el nom de l'estació.

Feu clic per veure les observacions i els pronòstics meteorològics.

Per canviar el mapa: feu clic els botons verds amb una creu de color negre per apropar; al botó verd amb un guió per allunyar la imatge; o en les fletxes verdes per a mapes adjacents.


METAR-TAF: